This is the latest recevied weather packets stored in our database for station/object KGRR-WX. If no packets are shown the sender has not sent any weather packets the latest 10 day(s).
| Time | Temp. | Humidity | Pressure | Rain* | Wind** | Luminosity | Snow |
|---|---|---|---|---|---|---|---|
| 1787926505 | 19.44° C | 59% | 992.6 hPa | 0 mm | - | - | - |
| 1787925606 | 18.89° C | 62% | 992.6 hPa | 0 mm | - | - | - |
| 1787924704 | 18.33° C | 74% | 992.7 hPa | 0 mm | - | - | - |
| 1787923806 | 17.22° C | 74% | 992.7 hPa | 0 mm | - | - | - |
| 1787922905 | 15.56° C | 74% | 992.7 hPa | 0 mm | - | - | - |
| 1787922005 | 15° C | 74% | 992.7 hPa | 0 mm | - | - | - |
| 1787921105 | 13.89° C | 89% | 992.2 hPa | 0 mm | - | - | - |
| 1787920205 | 13.33° C | 89% | 992.2 hPa | 0 mm | - | - | - |
| 1787919305 | 12.22° C | 89% | 992.2 hPa | 0 mm | - | - | - |
| 1787918414 | 11.11° C | 89% | 992.2 hPa | 0 mm | - | - | - |
| 1787917504 | 10.56° C | 87% | 991.6 hPa | 0 mm | - | - | - |
| 1787916605 | 10.56° C | 87% | 991.7 hPa | 0 mm | - | - | - |
| 1787915711 | 10.56° C | 87% | 991.7 hPa | 0 mm | - | - | - |
| 1787914805 | 10.56° C | 87% | 991.7 hPa | 0 mm | - | - | - |
| 1787913905 | 10.56° C | 84% | 990.4 hPa | 0 mm | - | - | - |
| 1787913005 | 11.11° C | 86% | 991.1 hPa | 0 mm | - | - | - |
| 1787912111 | 11.11° C | 86% | 991.1 hPa | 0 mm | - | - | - |
| 1787911205 | 11.11° C | 86% | 991.1 hPa | 0 mm | - | - | - |
| 1787910305 | 11.11° C | 80% | 990.4 hPa | 0 mm | - | - | - |
| 1787909411 | 11.67° C | 77% | 991.2 hPa | 0 mm | - | - | - |
| 1787908511 | 11.67° C | 77% | 991.2 hPa | 0 mm | - | - | - |
| 1787907605 | 11.67° C | 77% | 991.2 hPa | 0 mm | - | - | - |
| 1787906705 | 12.22° C | 76% | 990 hPa | 0 mm | - | - | - |
| 1787905811 | 12.22° C | 74% | 990 hPa | 0 mm | - | - | - |
| 1787904911 | 12.22° C | 74% | 990 hPa | 0 mm | - | - | - |
* Rain latest hour (hover to see other rain measurements)
** Current wind speed in m/s (hover to see current wind gust speed)